Location: �terpigny
(49.8910°N, 2.9249°E)
Time: 22:15:03
(UTC+00:00)

Cosmos 1908 - Pass Details

Date: 30 May 2022
Orbit: 505 x 524 km, 82.5° (Epoch: 01 July)

Event Time Altitude Azimuth Distance (km) Brightness Sun altitude
Rises 22:28:43 0° 359° (N) 2,623 8.2 -16.2°
Reaches altitude 10° 22:31:09 10° 14° (NNE) 1,732 6.7 -16.3°
Maximum altitude 22:34:18 25° 70° (ENE) 1,067 4.8 -16.5°
Enters shadow 22:35:52 19° 106° (ESE) 1,257 4.8 -16.6°
